Theta_e
314 314 317 320 323 326 329 328 326 324 326 325 322 323 329 338 331 323 335 344 333 336 348 346 343 345 352 357 350 339 339 343 344 343 345 347 346 346 347 348 348 349 349 350 350 350 351 351 351 353 353 354 355 355 356 356 357 358 358 358 359 359 360 360 360 358 357 356 354 352 349 346 343 341 340 339 338 337 335 334 332 332 332 332 332 332 332
313 315 319 322 325 328 329 329 328 326 327 326 324 325 330 337 336 337 346 348 341 339 342 345 345 340 342 346 344 339 340 344 343 342 344 346 346 346 346 347 348 348 349 349 348 349 351 351 351 352 352 354 354 355 355 356 357 357 358 360 360 361 361 360 360 359 358 357 356 354 352 350 346 343 342 341 340 339 337 335 334 333 333 333 333 332 333
314 317 322 323 324 327 328 330 331 328 326 327 325 325 329 333 334 341 349 348 344 341 340 341 337 333 337 344 342 340 342 342 342 343 344 345 346 345 345 346 347 347 348 349 349 351 350 349 349 350 351 353 354 355 356 357 357 359 359 361 361 361 361 361 360 360 359 358 358 357 355 353 350 347 345 343 343 341 339 337 335 335 334 334 334 334 334
315 318 320 321 323 327 330 332 334 330 326 327 325 324 329 331 330 339 346 342 341 340 338 338 336 334 339 341 336 337 342 343 343 342 342 344 345 345 346 345 345 347 348 348 349 349 349 348 348 348 351 354 355 356 357 358 360 360 360 362 362 361 361 361 361 361 360 360 359 358 357 356 354 352 350 347 346 344 342 339 338 337 336 335 335 335 335
316 316 318 322 326 330 330 329 331 332 330 333 331 328 336 339 335 339 343 341 344 342 336 336 337 334 336 338 333 332 339 343 343 343 343 344 344 344 345 345 345 346 348 349 348 348 347 347 347 348 350 353 356 358 359 361 361 361 362 362 362 362 362 361 362 361 361 362 362 361 360 359 357 355 353 351 348 346 344 342 340 339 337 336 335 336 337
315 315 319 327 330 330 330 328 329 331 335 342 342 339 341 341 340 340 342 344 345 339 333 335 340 339 342 348 346 343 343 344 345 348 348 346 346 345 345 345 345 346 348 349 349 349 349 348 348 350 352 353 357 358 359 361 362 362 362 362 362 362 362 362 362 362 362 363 363 363 362 361 360 358 355 353 350 349 347 345 344 341 339 337 336 337 338
314 318 327 335 334 332 331 328 328 330 332 338 341 341 341 339 340 342 344 341 338 336 339 344 349 351 354 356 357 355 352 349 349 353 354 353 351 349 346 346 346 347 347 349 351 353 355 355 355 356 357 359 360 361 362 362 363 363 363 363 362 363 362 363 363 363 364 364 364 365 364 363 362 360 358 355 352 351 349 348 346 343 340 339 337 337 338
317 323 331 336 335 334 332 328 327 328 329 332 339 344 342 338 339 341 343 341 336 339 350 355 356 358 358 357 357 356 355 356 355 356 359 358 357 356 355 354 353 352 352 351 352 355 357 359 361 361 360 362 362 363 363 363 363 364 364 364 363 363 363 363 364 364 365 365 366 366 365 365 364 362 360 359 355 353 351 350 349 346 344 343 342 340 340
320 320 324 332 338 340 338 331 327 327 327 329 337 345 344 338 338 339 341 345 343 340 349 355 355 355 356 357 357 354 354 355 356 357 359 359 359 360 360 361 362 361 360 360 360 359 359 361 362 361 362 362 363 364 364 363 364 364 364 364 364 363 364 364 364 365 365 366 366 366 366 366 364 364 363 361 359 356 353 351 350 349 347 346 345 345 345
319 316 321 333 342 345 339 330 324 325 328 327 331 342 344 338 336 338 340 345 346 343 344 349 350 352 357 358 357 355 354 355 355 356 357 357 357 358 357 359 361 361 361 362 362 363 364 364 364 364 364 363 364 364 364 364 364 365 364 365 365 364 365 365 365 366 365 366 366 366 366 366 366 365 364 363 362 360 357 355 353 350 348 347 348 349 348
314 314 321 332 338 338 332 327 324 324 329 329 330 342 346 340 335 338 338 341 343 342 343 347 348 352 355 355 354 353 355 357 358 357 357 355 353 352 352 353 353 355 356 355 354 356 357 359 361 361 362 363 363 364 364 364 364 364 364 365 364 365 365 365 365 365 365 366 366 366 366 366 366 366 364 364 363 362 360 359 356 354 352 350 349 349 350
314 316 323 332 335 330 326 324 324 324 328 331 337 346 346 338 334 336 338 339 341 340 343 345 347 350 352 353 353 353 354 356 357 357 358 355 353 350 347 345 343 345 349 350 350 351 351 351 353 354 356 357 359 360 362 362 364 363 363 363 364 365 364 365 365 365 365 366 366 365 366 366 365 365 365 365 364 363 362 361 359 358 356 354 351 351 350
314 316 320 327 331 328 325 325 324 326 331 337 343 346 342 336 334 335 336 338 340 339 341 343 344 345 348 350 351 352 352 353 355 356 356 355 354 352 349 344 339 336 338 340 341 343 344 343 341 344 349 353 355 357 359 359 360 361 362 361 362 362 364 364 365 365 365 365 365 365 365 364 365 365 365 364 364 363 363 362 361 360 358 357 356 354 353
315 314 317 325 331 327 324 324 325 329 336 341 342 339 335 331 331 333 334 336 338 340 341 341 341 343 345 347 349 349 351 352 353 353 352 351 351 350 348 345 342 338 335 335 335 337 339 338 334 333 338 345 350 354 356 357 359 359 359 359 359 359 359 359 361 362 364 364 365 364 364 364 365 364 364 365 365 364 363 363 363 361 361 359 359 357 356
318 318 321 328 331 326 322 324 330 334 337 337 335 332 330 328 328 330 332 334 336 338 340 340 340 341 342 345 347 347 349 350 351 351 351 350 350 350 349 350 350 347 342 338 337 337 339 343 348 345 340 340 343 346 349 352 355 357 358 358 357 357 356 356 355 356 358 361 362 363 364 364 364 364 364 365 364 364 364 364 363 362 362 361 360 360 360
322 325 327 327 327 324 322 324 329 331 331 330 328 328 328 326 326 327 328 330 333 337 339 339 339 339 340 343 345 346 348 349 348 349 350 349 349 349 349 352 353 353 353 351 349 346 343 347 357 361 357 352 346 342 343 345 346 349 352 355 356 358 358 356 355 354 354 356 360 362 363 364 364 364 365 365 365 365 365 365 364 364 364 364 363 363 362
323 326 325 322 321 321 321 322 325 327 326 325 325 326 326 325 324 325 325 327 331 334 336 338 339 338 339 341 343 344 346 347 348 348 349 348 348 348 347 348 350 352 355 356 355 355 352 350 356 363 363 360 356 353 349 347 346 346 345 347 351 354 356 357 358 357 356 356 358 361 363 364 364 364 364 364 366 366 365 366 365 366 366 365 365 365 365
322 321 321 318 317 319 321 322 324 324 323 323 323 324 324 324 324 323 323 325 329 332 334 337 338 339 339 339 340 341 342 343 344 346 346 347 348 348 347 347 347 350 353 354 354 355 355 354 357 362 363 362 362 362 359 356 355 353 352 351 350 352 355 356 358 358 358 357 359 362 362 363 364 364 364 365 365 366 366 367 367 367 367 366 366 366 366
320 320 321 317 316 318 318 319 321 321 321 322 322 322 322 323 322 323 322 322 326 330 332 334 336 338 339 340 339 338 338 339 341 342 343 345 348 349 348 346 346 348 351 353 353 353 353 352 355 359 362 363 364 364 364 364 363 361 360 360 359 358 358 359 359 360 359 359 360 361 363 363 365 364 365 365 366 367 367 367 367 367 367 367 367 367 367
317 319 319 316 315 317 317 317 319 318 319 321 321 321 321 321 321 321 321 321 323 326 329 332 333 335 336 338 339 337 334 336 339 341 342 344 346 348 348 347 347 346 347 350 351 352 352 351 350 352 356 360 363 363 365 366 367 365 363 362 363 363 362 362 362 362 360 360 361 362 364 366 366 367 368 367 367 367 367 367 367 367 367 367 368 367 366
315 316 316 315 316 317 316 316 317 317 317 319 319 319 320 319 319 320 321 322 323 322 324 327 331 332 332 332 335 337 335 334 336 339 341 343 345 346 347 347 347 347 346 347 349 350 351 350 349 348 349 354 359 362 363 365 367 367 365 363 363 363 363 363 363 363 363 362 361 363 364 366 368 368 368 368 368 367 367 367 367 367 367 367 367 367 367
314 315 314 315 316 317 316 315 315 315 316 317 317 317 318 317 318 320 322 324 323 321 320 321 326 332 332 328 329 333 335 333 333 334 336 339 342 344 344 344 345 346 346 347 348 348 348 348 348 347 347 350 355 358 360 362 364 364 365 365 364 363 363 364 364 364 363 363 363 365 365 366 367 367 367 367 368 367 367 367 367 368 368 368 367 367 367
311 312 312 313 314 314 314 314 314 314 314 316 316 317 316 317 319 321 322 321 321 321 320 318 322 329 332 329 327 328 330 332 332 331 331 336 340 342 341 341 342 345 346 347 347 347 348 347 347 347 347 348 351 355 358 361 362 362 363 364 365 365 365 365 365 365 364 364 365 366 366 366 366 367 367 369 369 369 370 369 368 368 368 368 368 367 368
310 310 311 312 312 313 313 313 313 313 313 314 316 316 317 318 320 320 320 319 318 318 319 318 319 323 330 331 329 325 326 329 331 331 330 331 336 340 343 343 344 345 346 347 347 347 347 348 348 347 346 346 348 352 356 361 363 363 362 362 363 365 365 365 365 365 365 366 366 366 367 368 368 368 368 368 369 369 369 369 368 368 368 367 367 367 367
309 310 310 311 311 311 312 312 312 312 312 314 315 317 317 318 318 317 318 317 317 317 319 319 317 319 327 333 331 324 322 325 328 329 330 328 331 339 345 345 346 347 347 347 348 348 347 347 347 347 346 346 347 350 353 358 361 363 363 362 363 365 365 364 364 364 365 365 366 367 368 368 368 368 367 367 367 368 366 366 367 366 366 365 365 365 365
309 309 309 309 310 310 311 311 312 312 312 313 315 316 316 316 316 316 317 316 316 317 318 319 317 318 325 332 332 325 320 322 325 327 329 328 330 338 345 346 346 347 347 347 348 348 347 346 346 346 346 346 346 349 352 355 358 361 364 365 365 365 364 364 364 364 363 364 365 368 368 368 367 367 367 366 367 366 365 363 363 363 362 361 360 359 360
312 311 309 309 309 310 310 311 311 312 312 314 315 316 316 316 316 316 316 317 317 316 317 317 317 316 321 329 331 326 322 323 323 324 327 329 330 336 342 345 346 347 348 348 348 347 347 346 347 346 346 345 346 348 350 352 354 357 361 363 365 366 364 364 364 364 363 362 364 365 366 366 365 365 365 365 365 363 362 362 362 361 356 350 345 343 343
315 315 312 310 310 311 311 311 311 312 313 314 315 315 315 315 316 316 316 316 316 316 316 316 315 316 322 329 331 328 325 324 323 324 327 330 331 335 340 344 346 348 349 349 348 348 348 347 346 345 344 344 347 348 349 350 352 354 356 359 362 364 364 364 364 364 363 362 363 363 363 363 363 362 361 362 360 358 357 356 355 352 345 338 332 329 329
316 317 315 313 312 311 311 311 311 311 312 313 314 314 314 314 315 315 316 316 316 316 316 315 316 321 328 332 332 330 328 327 326 326 328 330 333 337 341 343 345 347 349 349 348 348 348 346 345 344 344 345 347 349 349 350 352 352 353 355 357 359 360 360 360 361 360 359 359 358 357 357 357 355 353 351 350 349 347 345 344 341 337 334 331 329 327
317 318 318 315 313 311 310 311 312 311 311 312 312 312 313 314 314 314 315 316 316 316 315 315 317 323 329 332 331 330 330 330 331 331 331 332 334 338 341 343 345 346 348 348 348 348 347 346 344 344 345 346 347 348 349 349 349 350 350 351 351 353 354 353 351 349 349 347 347 348 348 348 347 345 343 341 341 340 339 338 338 337 336 336 336 335 335
316 318 318 316 313 311 311 312 312 312 312 312 312 313 313 313 314 315 315 315 316 316 315 315 318 322 328 332 332 331 331 333 334 335 335 335 337 338 340 344 345 346 345 346 346 347 347 346 344 344 346 346 346 346 347 347 347 348 348 348 347 346 347 346 343 342 341 341 340 342 343 343 342 341 340 339 339 338 337 337 338 338 339 339 339 338 338
314 316 316 316 314 312 312 312 311 312 312 313 313 314 314 314 314 315 315 316 317 316 315 317 319 321 325 329 332 332 332 333 334 335 336 337 338 339 340 343 344 343 343 342 342 344 345 345 344 344 345 346 346 346 347 347 346 345 345 346 345 343 343 343 341 341 341 340 340 341 341 341 341 340 340 340 339 338 338 339 339 340 340 339 338 337 337
311 313 315 316 315 314 313 313 312 312 313 314 314 314 314 314 315 315 315 316 316 315 317 319 321 322 325 329 331 331 332 332 332 333 334 335 336 337 339 341 342 341 340 339 339 340 342 344 344 342 342 344 346 346 346 346 344 342 342 344 343 343 343 343 342 342 341 340 341 341 341 341 341 341 341 340 340 340 340 340 340 339 339 338 337 336 337
310 311 313 316 316 315 315 314 314 314 314 315 315 314 315 315 315 315 316 316 316 316 319 321 322 324 328 330 330 330 331 331 331 332 332 332 333 334 336 337 338 337 336 336 336 338 340 341 343 342 341 342 344 345 345 345 341 339 341 343 343 342 342 342 342 342 341 341 341 341 341 341 341 341 340 340 340 340 340 339 339 338 338 337 337 337 337
309 310 311 314 316 317 317 317 317 316 316 316 315 315 315 315 316 316 316 316 316 318 321 323 323 325 328 330 329 329 329 328 328 328 328 329 330 331 332 333 334 333 333 333 334 336 337 338 340 343 342 342 342 343 343 343 341 339 340 342 343 341 342 341 341 341 341 341 341 340 340 340 340 339 339 339 339 339 339 339 338 338 337 337 337 337 336
308 308 309 310 312 315 316 318 318 317 317 317 316 316 316 316 316 316 316 316 317 319 323 324 324 325 327 328 327 326 325 324 323 324 324 325 325 327 328 329 328 328 329 330 331 333 334 334 336 340 341 341 341 341 341 342 342 341 341 342 342 342 341 341 341 341 341 340 340 340 340 340 339 339 339 338 338 338 338 337 337 337 336 336 336 335 336
307 307 307 308 309 311 312 314 315 317 317 317 317 317 317 318 317 317 317 319 321 322 324 324 324 324 325 325 324 323 322 321 321 321 321 322 323 324 326 325 324 325 325 324 325 328 331 331 331 334 336 338 338 339 339 340 341 341 341 341 341 341 340 340 340 340 339 339 339 339 339 339 339 338 338 338 337 337 337 336 336 336 335 335 335 334 334
307 307 307 307 307 308 308 310 312 314 315 316 316 316 317 318 318 318 320 321 321 320 321 322 323 323 321 321 321 321 320 319 319 320 320 321 323 324 324 323 322 322 322 321 320 322 324 324 324 327 330 331 333 335 337 338 339 339 339 339 340 339 339 339 338 338 337 337 336 336 336 336 337 336 336 335 335 335 334 334 333 333 332 332 331 330 329
307 307 307 306 306 306 306 307 309 310 311 312 312 313 314 316 317 319 319 319 317 316 316 317 320 320 319 318 318 318 318 318 319 320 320 321 323 323 321 319 319 320 320 320 321 322 321 320 319 320 322 325 326 328 331 333 335 336 336 336 337 337 336 336 335 334 333 332 332 331 331 331 331 331 330 330 329 329 329 329 328 328 327 327 326 326 326
305 306 307 307 306 306 305 306 306 307 308 309 310 310 311 312 313 313 313 313 313 313 312 313 315 316 316 315 314 314 314 315 316 318 319 320 321 320 318 317 318 318 319 320 321 322 323 323 321 319 319 320 322 324 325 327 328 330 330 330 330 331 331 330 330 329 328 327 327 326 326 326 326 325 325 324 324 324 324 323 323 323 323 323 324 324 325
305 305 305 306 306 306 306 305 305 305 306 307 307 308 309 310 310 310 310 309 309 309 309 310 311 311 312 312 312 312 312 313 314 315 317 318 318 318 316 315 316 317 318 319 320 321 322 324 323 321 319 319 321 322 323 324 325 326 326 326 326 326 326 326 325 325 325 324 324 324 324 323 322 322 321 321 321 321 321 321 321 321 320 321 322 323 324
305 305 305 305 305 305 305 305 305 305 305 305 305 306 307 308 308 309 309 309 308 307 308 308 309 309 309 309 309 310 310 311 312 313 314 315 315 315 314 313 314 315 317 318 318 318 319 320 321 320 320 320 319 320 321 321 322 323 323 323 323 323 323 323 322 322 322 322 322 322 322 321 320 320 319 319 319 319 319 319 319 319 320 320 320 321 322
307 307 306 305 304 304 304 304 304 304 304 305 305 305 305 305 306 306 307 308 308 307 308 308 308 308 307 307 306 307 307 307 307 308 309 309 309 311 311 312 312 313 314 315 315 316 316 316 317 317 318 319 319 319 319 319 319 319 320 320 320 321 320 320 320 320 320 320 320 320 320 320 319 318 318 318 317 318 318 318 319 319 319 319 320 320 321
307 308 307 307 306 305 304 304 304 304 304 304 304 305 304 304 304 305 305 305 306 306 307 307 307 307 307 307 307 307 307 307 306 306 306 306 306 307 308 308 309 310 311 312 313 313 314 314 314 314 315 316 317 318 318 318 317 316 315 315 315 316 317 317 318 317 318 318 317 317 317 317 316 316 316 316 316 316 317 317 318 317 318 318 318 319 319
307 307 307 307 307 307 307 306 305 305 304 304 304 304 304 304 303 303 304 304 304 304 305 306 306 307 307 307 307 307 307 308 307 307 306 306 306 305 306 306 307 307 308 309 310 310 311 311 312 313 313 314 314 315 315 315 315 314 313 311 311 311 311 312 312 312 312 312 312 312 312 312 312 312 312 313 313 314 314 315 315 316 316 317 317 317 317
308 308 307 307 307 307 307 307 306 306 306 305 304 304 303 303 303 303 303 304 304 304 304 304 305 305 306 306 306 306 306 307 307 307 306 306 306 305 305 305 305 305 305 306 306 307 308 309 310 311 311 311 312 312 312 312 312 312 311 310 309 309 308 307 307 307 307 306 306 306 306 307 307 307 307 307 308 308 308 309 310 311 312 313 314 315 315
310 310 309 309 307 307 306 306 306 306 306 305 305 304 304 303 303 303 303 304 304 304 304 304 304 305 305 306 306 306 306 306 306 306 306 305 305 305 305 305 304 304 304 304 304 305 305 306 307 308 309 309 310 310 310 310 310 309 309 308 307 307 306 305 305 304 304 304 304 304 303 304 304 304 304 304 304 304 304 304 304 304 305 306 307 309 310
309 309 309 309 309 308 308 307 307 307 306 305 305 304 304 304 304 303 303 303 303 303 304 304 304 304 304 305 305 306 306 306 306 306 305 305 305 305 305 304 304 304 304 304 304 304 304 304 304 305 306 306 307 307 307 307 307 307 306 305 305 305 304 304 304 303 303 303 303 303 303 302 302 302 302 302 302 302 301 301 301 300 300 299 299 301 302
308 308 308 308 308 308 308 308 307 307 307 306 306 305 304 304 304 303 303 303 303 303 304 304 304 304 304 304 305 305 305 305 305 305 305 305 305 304 304 304 304 304 304 304 304 304 303 303 304 304 304 305 305 305 305 305 305 305 305 304 304 304 303 303 303 303 303 302 302 302 302 301 301 301 300 300 300 300 299 299 299 298 298 296 295 295 296
308 307 307 307 307 308 308 307 306 306 306 305 305 305 305 304 304 303 303 303 303 303 303 304 304 304 304 304 305 305 305 304 304 304 304 304 303 303 303 303 303 303 303 303 303 303 303 303 303 303 303 303 304 304 304 304 304 304 303 303 303 303 303 303 302 302 301 301 301 301 301 301 300 300 299 299 299 299 298 298 298 298 297 296 294 293 293
307 307 307 306 306 306 306 306 306 305 304 304 303 303 304 304 304 303 302 302 303 303 303 303 303 303 303 303 303 304 304 304 304 303 303 302 302 301 301 302 302 303 303 302 302 302 302 302 302 302 302 302 302 303 303 303 303 302 302 302 302 302 302 302 301 301 301 301 301 301 301 300 300 299 299 299 299 298 298 298 298 298 297 296 294 292 292
306 305 305 305 305 305 305 305 305 305 304 303 303 302 302 303 303 303 303 302 302 303 303 303 302 302 302 302 302 302 303 303 302 302 302 301 301 301 300 300 301 301 302 302 301 301 301 301 301 301 301 301 301 301 301 301 302 302 301 301 301 301 301 300 301 301 300 300 300 300 300 300 299 299 299 299 298 298 298 298 298 297 297 297 295 293 292
Wind_Speed
20 19 19 17 14 13 12 13 15 21 17 16 14 9 8 9 8 8 9 10 11 8 7 8 7 5 7 8 12 21 28 33 36 40 42 42 42 43 44 47 49 50 50 49 49 50 49 49 48 47 46 47 48 48 48 48 48 48 48 48 47 47 47 47 46 45 44 44 44 44 44 45 45 45 45 45 44 44 43 42 42 41 41 40 40 40 39
20 18 14 11 10 9 9 10 11 20 20 17 15 10 8 8 8 9 9 10 11 9 8 8 7 5 6 8 11 20 28 30 32 36 38 39 41 41 42 45 48 51 51 51 50 50 49 48 47 46 46 47 47 48 48 48 48 48 48 47 47 47 47 47 46 45 44 44 44 45 45 46 46 46 46 46 45 45 44 43 42 41 41 41 41 41 41
13 13 11 11 12 10 9 9 5 15 20 18 15 11 8 6 7 7 8 9 9 6 2 2 2 6 10 9 7 12 24 31 33 35 37 39 41 41 42 44 45 46 47 48 49 49 49 48 47 47 47 47 47 48 48 48 48 47 47 46 47 47 47 46 45 44 44 44 45 45 46 46 46 46 46 46 47 46 45 44 43 42 42 42 42 42 42
8 9 13 16 16 12 6 6 8 6 15 14 11 10 7 4 5 4 6 6 7 4 3 6 7 9 10 8 6 8 18 29 33 34 34 36 40 42 43 43 41 40 41 43 47 48 48 47 47 47 47 46 47 48 48 47 46 45 45 46 46 46 45 44 44 44 44 44 44 45 46 46 46 46 46 47 47 47 47 45 44 44 43 43 43 43 42
7 9 15 16 12 7 3 6 12 7 5 7 3 3 4 4 0 4 5 6 6 4 7 10 9 9 8 6 7 10 15 23 29 31 32 35 39 42 44 43 41 41 41 43 45 45 45 46 46 47 47 47 47 47 46 45 45 44 45 45 45 44 44 43 42 42 41 41 42 43 44 45 46 46 47 47 48 48 47 46 45 45 44 44 44 44 44
7 13 16 12 3 3 2 5 15 14 6 16 16 10 11 14 10 4 4 4 4 5 9 14 11 9 11 13 16 16 19 22 21 21 23 29 33 35 38 41 42 42 42 42 42 43 43 44 44 45 46 45 44 43 43 43 43 44 44 44 44 43 42 42 41 40 40 40 40 40 40 41 43 45 47 47 48 48 47 47 47 46 46 45 44 45 45
6 10 9 3 4 2 5 4 14 17 10 14 19 18 18 19 17 14 10 3 7 5 9 18 19 18 22 29 30 27 24 27 28 25 21 21 23 25 28 32 35 37 39 39 39 39 40 42 42 43 43 43 41 41 41 41 42 42 43 43 43 42 42 41 40 40 39 39 38 38 37 38 40 42 44 46 47 47 47 47 48 47 47 46 45 45 45
4 5 4 3 6 4 7 8 14 18 15 12 13 17 18 18 16 14 12 8 7 8 12 20 25 30 34 36 33 30 29 32 34 33 29 26 24 23 22 24 25 27 30 32 32 32 32 34 36 39 39 39 39 39 39 39 40 41 41 42 42 42 42 42 41 40 40 39 38 37 37 37 39 40 41 43 44 45 46 47 47 47 47 47 46 46 45
2 4 5 3 3 6 7 9 13 13 10 11 8 6 10 15 17 14 12 11 7 5 10 16 25 35 34 24 21 25 29 32 35 36 34 31 31 29 26 24 23 21 20 20 20 22 23 25 29 32 35 36 36 35 35 36 38 39 40 41 42 42 42 42 41 40 40 39 39 38 37 38 39 38 38 39 40 42 44 45 46 47 48 47 47 47 46
4 5 4 4 4 3 4 11 17 16 12 13 9 1 7 13 18 17 13 11 10 7 2 5 18 29 23 10 9 19 25 29 34 36 34 32 32 31 29 27 26 24 23 21 20 20 20 21 23 26 29 30 31 31 31 33 35 37 39 40 41 42 42 41 41 40 40 40 39 39 39 39 39 38 37 37 37 38 40 42 43 44 45 46 46 47 47
4 4 3 3 1 1 8 16 19 23 25 18 7 3 7 10 17 20 16 12 12 10 8 6 14 19 13 4 6 16 23 29 33 34 33 31 30 29 27 25 24 23 23 22 22 21 21 20 20 21 23 25 26 28 28 29 32 34 37 38 38 40 40 40 40 40 39 40 40 39 40 39 39 38 37 36 36 36 37 39 39 40 42 43 45 46 46
5 4 3 2 1 2 11 16 18 27 32 19 2 7 6 8 15 20 17 14 15 16 15 15 15 12 8 6 9 17 26 30 32 33 32 30 28 26 24 23 20 18 17 18 19 19 17 17 17 18 21 22 22 24 25 26 29 31 33 33 34 36 37 38 39 39 39 40 40 40 39 39 38 38 37 36 36 37 37 38 38 39 39 41 42 43 44
4 5 4 2 1 2 10 18 24 31 25 7 6 7 1 7 13 18 19 18 20 22 22 20 15 13 15 17 18 23 28 30 31 30 29 28 27 24 22 20 19 17 15 13 12 12 12 12 13 15 18 20 20 21 22 24 26 28 28 29 30 31 33 35 37 38 39 39 40 39 38 37 37 37 37 37 37 37 37 38 38 38 38 39 41 41 42
3 4 4 2 1 3 14 23 27 24 10 3 6 4 3 7 11 16 21 23 23 24 26 25 21 22 25 27 27 27 28 29 30 28 25 25 24 22 20 18 16 15 13 11 9 6 5 6 8 10 14 17 18 19 21 23 24 25 26 28 28 28 29 30 32 34 36 38 38 38 37 36 36 37 37 37 37 38 38 38 38 38 37 38 39 40 40
2 3 2 2 0 7 19 21 16 14 9 5 5 6 6 10 15 18 22 26 26 25 25 27 27 27 28 28 28 28 28 28 28 26 24 23 21 19 18 17 15 13 10 9 8 6 2 2 4 6 9 12 14 17 19 21 24 25 25 26 28 28 28 27 27 28 31 34 36 36 36 35 35 35 35 36 37 38 38 38 38 38 37 37 37 38 38
2 0 2 3 2 4 14 14 7 7 9 11 12 10 9 13 19 21 23 26 29 28 25 25 28 29 29 28 27 27 28 27 26 25 24 22 20 18 17 15 13 11 10 9 8 6 3 1 3 4 5 7 10 13 16 19 22 24 25 25 25 26 27 28 27 26 26 28 31 33 34 33 33 33 34 35 36 38 38 38 37 37 36 35 35 35 36
2 2 1 3 5 4 6 13 11 10 14 16 15 13 14 18 21 24 25 26 29 30 27 26 27 28 27 27 26 26 26 25 24 24 23 22 21 19 17 14 10 9 9 7 6 6 5 2 2 3 4 5 8 10 13 15 18 20 22 23 24 24 25 26 27 26 25 25 27 29 30 31 31 32 32 34 36 37 37 37 36 35 34 33 33 33 33
4 3 2 6 10 6 11 16 14 13 15 15 14 14 16 19 21 23 26 26 27 29 29 27 27 27 25 25 25 25 24 23 22 21 21 21 20 20 19 16 12 9 8 7 6 5 4 3 3 3 4 6 7 9 11 12 14 15 16 18 20 22 22 22 23 24 24 23 24 25 27 28 28 29 30 32 34 35 36 35 35 33 31 31 30 30 30
4 3 2 9 12 11 17 18 15 15 16 14 15 16 15 17 19 19 21 23 24 26 27 27 26 26 25 24 23 23 23 22 21 20 19 19 18 18 18 17 15 12 9 9 9 9 7 6 5 6 7 7 8 9 10 11 12 14 14 14 15 17 18 19 20 21 22 21 21 22 24 24 25 27 28 30 32 33 33 32 31 30 29 29 28 28 27
6 4 4 14 14 9 16 18 14 15 16 14 16 18 17 18 18 16 17 19 19 21 24 24 23 24 24 23 22 21 21 20 20 20 19 17 15 15 15 16 15 13 11 11 12 12 12 10 9 9 10 10 9 9 10 11 12 14 15 15 15 15 16 18 19 20 20 19 20 21 22 24 26 27 27 28 29 29 28 28 28 28 27 27 26 25 24
7 4 6 16 14 7 11 16 14 14 15 14 15 16 17 19 19 17 16 16 15 16 19 20 20 20 20 21 19 18 18 18 17 17 17 15 13 12 12 14 14 14 13 12 11 12 12 12 12 13 12 12 11 10 10 12 13 14 15 15 16 16 17 17 18 18 18 19 20 21 24 26 27 27 26 26 26 24 23 23 24 24 23 23 23 22 23
4 4 9 12 7 5 9 14 16 17 17 15 13 13 16 18 18 16 15 14 14 14 15 16 18 17 16 18 18 16 15 16 16 15 14 13 11 11 11 13 13 14 13 11 10 11 12 12 13 14 13 11 10 10 11 12 13 15 16 16 15 16 17 18 18 19 19 20 21 22 24 25 25 24 24 25 24 23 22 21 21 21 22 22 22 22 23
10 14 16 12 6 7 15 20 20 20 18 15 13 13 13 13 13 13 14 16 16 16 15 15 17 16 14 16 18 17 16 16 15 15 14 12 12 12 12 12 12 11 11 10 10 11 11 11 11 12 12 11 10 10 10 10 12 14 16 17 16 16 16 18 19 20 21 21 22 22 23 24 24 24 24 25 24 24 23 22 20 20 21 21 22 22 22
18 21 21 17 14 18 24 27 25 22 18 17 15 11 8 8 8 9 13 16 17 18 17 16 16 15 15 15 17 18 19 18 17 17 15 13 12 10 9 9 9 9 9 10 10 10 10 8 8 10 11 11 10 10 9 9 10 12 14 16 17 18 18 18 19 19 20 21 21 22 24 25 25 24 24 24 23 21 21 21 21 20 19 19 19 19 19
25 28 27 25 26 29 30 30 29 26 20 16 13 9 6 6 8 10 13 16 17 17 17 18 18 16 15 15 17 19 19 19 19 19 17 15 11 7 5 5 6 7 9 10 9 7 6 6 8 10 10 10 9 8 8 9 9 10 12 14 15 17 18 19 19 19 19 20 21 23 24 25 24 23 23 23 22 19 17 16 17 18 17 17 17 18 19
35 35 32 29 31 35 33 29 30 28 19 14 12 11 9 8 9 10 11 13 15 15 15 16 18 16 15 15 17 18 18 18 18 18 17 15 11 6 4 4 5 6 9 9 7 5 5 6 8 10 10 10 8 6 7 8 8 9 11 14 15 16 16 18 18 19 19 20 21 23 24 24 23 22 22 22 22 21 19 18 18 18 17 16 15 15 15
37 33 27 22 25 32 30 25 25 24 17 12 10 9 8 7 6 7 9 11 12 12 13 14 16 16 14 13 15 16 16 16 16 16 15 13 11 8 7 6 5 7 9 8 6 5 6 7 7 9 10 9 8 6 6 8 8 9 10 13 15 15 16 18 19 19 19 19 20 22 24 23 22 22 22 22 22 23 22 21 20 19 16 14 12 10 9
33 28 24 24 27 29 25 20 19 18 16 13 11 8 9 10 6 5 7 10 10 12 13 14 15 15 13 13 14 14 14 13 13 14 13 11 11 10 9 8 7 8 9 9 8 8 8 8 8 8 8 7 6 5 5 7 9 10 10 11 12 13 16 18 19 20 20 19 20 21 21 20 20 20 20 20 20 19 18 18 18 18 16 14 14 12 10
32 26 24 30 36 33 28 25 25 24 23 21 18 14 14 13 10 8 8 9 11 12 13 13 12 11 10 12 13 13 11 10 11 11 10 10 10 10 9 8 9 10 11 11 11 11 11 11 9 7 6 6 6 6 7 8 8 8 9 9 9 10 13 18 20 21 21 20 20 20 20 19 19 18 18 18 17 17 17 17 16 17 16 15 14 13 12
29 22 21 25 27 27 28 32 33 29 26 25 24 21 19 17 15 12 10 10 13 14 14 13 11 10 10 11 11 10 9 8 8 8 8 9 10 10 8 7 8 9 11 12 13 13 14 13 12 10 9 8 9 9 9 8 8 8 8 9 10 10 13 18 21 23 24 24 23 23 22 22 21 21 20 20 19 18 18 17 17 16 15 14 12 11 11
27 18 18 19 16 19 26 31 30 25 23 22 21 21 19 17 15 13 12 11 13 14 15 15 13 12 11 10 8 8 7 6 5 6 7 8 9 9 7 6 6 7 8 9 11 13 14 15 14 13 11 10 11 10 10 10 9 9 10 14 17 18 20 22 25 27 29 29 29 27 27 27 26 25 24 22 21 20 19 18 17 16 15 15 14 12 10
34 24 17 14 12 14 20 25 25 21 20 19 18 17 17 17 15 13 11 11 10 11 13 14 14 13 12 10 8 7 6 4 3 3 5 5 6 7 7 7 9 10 11 11 11 12 13 14 14 13 13 13 13 13 13 13 12 11 14 18 21 22 25 28 30 31 31 32 32 31 31 31 29 27 26 24 23 22 21 19 19 18 18 17 15 12 10
36 31 23 12 11 13 16 20 20 18 16 17 17 16 14 14 14 12 11 10 10 11 11 11 12 10 8 8 8 5 5 4 3 3 2 2 2 4 7 10 11 12 13 13 13 14 13 14 15 14 14 15 16 16 18 18 17 16 19 21 21 22 25 27 30 31 31 32 32 32 32 31 28 27 25 24 24 23 22 22 22 23 21 19 16 13 11
35 34 32 19 4 9 12 13 14 15 14 13 14 14 13 12 12 11 11 11 12 11 9 9 9 5 6 7 6 6 7 6 6 7 7 6 7 8 9 12 13 13 13 13 14 16 16 16 17 17 18 19 20 20 20 22 22 22 23 21 20 22 24 26 27 28 29 29 29 29 29 27 26 25 24 24 23 23 23 23 23 22 20 18 15 13 11
40 40 40 34 21 7 2 4 5 7 9 9 9 10 11 12 11 10 11 11 12 10 7 7 6 5 10 9 7 9 10 10 13 15 14 13 12 11 12 14 15 15 14 13 13 14 15 16 18 21 22 23 24 23 23 23 24 24 23 22 21 22 24 24 25 26 27 27 27 26 25 24 24 22 22 21 21 21 22 21 20 19 17 15 14 12 11
44 43 42 41 36 27 18 13 10 5 2 2 3 5 7 9 9 10 10 10 10 9 8 7 6 10 11 10 10 13 15 18 21 22 21 20 19 17 15 16 16 17 17 17 15 15 15 14 16 21 25 25 26 26 25 25 26 25 24 24 23 23 23 23 23 23 24 23 23 23 22 21 20 19 18 18 18 18 18 18 17 16 14 13 12 11 9
44 44 43 42 42 39 34 28 23 16 11 7 5 2 3 4 5 6 6 4 4 8 10 10 12 15 16 16 18 20 22 23 24 25 25 24 23 21 20 20 19 18 18 18 16 15 19 19 17 21 26 28 28 30 30 28 28 27 26 26 26 25 23 22 21 21 20 19 18 18 18 17 16 16 15 14 14 14 13 13 13 12 12 11 10 9 8
40 42 43 43 43 42 41 38 35 30 23 19 17 13 8 5 2 2 3 8 13 14 14 15 18 20 22 25 25 25 26 26 26 26 26 25 23 23 25 25 22 21 22 20 17 15 18 20 20 23 29 31 30 31 33 32 31 31 29 28 27 26 23 22 20 18 16 14 13 13 13 13 12 12 12 11 11 11 10 9 9 8 8 7 7 7 7
38 39 39 41 43 44 44 43 42 39 35 33 31 28 24 20 16 13 15 18 21 22 22 22 23 26 28 29 29 29 28 27 26 26 26 25 24 25 29 30 27 26 24 19 14 14 15 17 20 23 29 32 32 31 31 31 31 31 30 29 27 25 22 20 18 16 14 12 11 10 10 10 10 11 11 10 10 9 8 8 7 6 5 4 4 3 3
36 36 36 37 38 40 42 44 44 42 40 39 37 36 34 33 31 29 28 26 24 24 24 25 27 30 31 31 31 30 29 29 28 28 27 26 27 29 31 30 27 24 21 19 17 15 13 13 17 24 27 30 30 30 29 28 27 27 26 24 23 22 20 17 16 15 14 13 13 12 13 13 13 13 12 11 11 10 9 9 8 7 7 6 5 3 3
31 34 35 35 35 34 36 39 41 42 43 43 42 40 39 40 39 37 35 33 30 28 26 27 30 33 34 34 34 33 32 32 32 32 30 30 30 32 33 30 24 21 19 18 18 18 15 13 15 19 23 26 27 25 23 22 22 21 21 21 20 21 20 19 18 18 17 16 16 16 15 15 15 15 14 14 13 13 13 12 11 10 9 8 7 5 4
24 28 31 33 35 35 35 35 37 39 40 41 42 42 42 42 41 39 36 34 34 31 27 26 29 32 34 35 36 35 34 33 33 32 33 32 32 33 33 29 24 21 19 18 18 19 20 20 19 18 18 21 24 24 23 23 22 22 22 22 21 22 22 22 22 21 20 19 18 18 17 16 17 17 16 16 15 15 15 14 14 13 12 11 10 8 6
17 19 22 26 30 33 34 35 36 37 38 38 38 39 39 40 40 39 37 36 35 33 30 28 28 29 32 34 36 35 34 33 33 33 34 33 32 31 30 28 24 22 21 21 21 21 22 24 23 20 18 19 20 22 24 26 28 27 26 25 24 24 24 24 23 22 21 21 20 20 18 18 17 17 17 16 16 15 15 14 14 14 13 12 11 10 8
15 15 16 18 20 24 28 30 32 33 33 34 35 35 35 35 36 36 36 35 33 32 31 31 30 30 31 33 33 32 31 30 31 33 34 34 32 30 27 24 23 22 21 21 22 22 22 22 21 20 19 20 19 19 20 22 25 27 28 28 27 27 26 26 25 24 23 22 21 21 20 19 19 18 17 17 16 15 15 14 14 13 12 12 11 11 10
14 16 16 16 16 17 19 22 25 25 26 27 29 31 32 32 32 32 32 31 30 29 28 28 29 29 30 31 32 31 30 29 29 31 32 34 33 30 26 23 22 22 20 20 22 22 22 20 18 18 18 19 19 19 19 20 20 21 22 24 25 26 26 27 26 25 24 23 22 21 20 20 19 18 18 17 16 16 15 14 13 12 11 10 10 10 10
10 12 12 14 16 17 17 18 19 20 20 22 23 24 25 27 28 28 27 26 26 26 25 25 24 25 27 27 28 29 30 30 29 29 29 30 30 28 25 23 23 22 21 21 22 22 21 19 18 17 17 16 16 17 19 19 19 19 19 20 21 22 24 25 25 24 23 22 21 20 19 18 18 17 17 16 16 15 14 13 12 11 10 9 8 8 8
11 11 10 11 13 15 16 16 17 17 19 20 21 21 20 21 24 25 25 24 23 23 23 22 22 23 23 24 25 26 27 27 27 26 25 26 26 25 24 23 22 21 21 22 22 21 19 18 17 17 16 16 16 17 18 19 19 20 20 20 20 20 21 22 22 22 22 21 19 18 17 17 16 16 15 15 15 14 13 13 12 12 11 9 8 8 7
13 14 14 11 10 12 13 14 15 16 17 17 18 18 18 18 19 20 21 21 21 21 21 21 21 22 21 22 22 23 23 24 24 21 19 19 20 22 22 21 20 19 20 21 20 19 17 16 16 16 16 15 16 17 18 18 19 19 19 19 19 19 20 21 21 21 20 19 18 17 17 17 16 16 15 15 15 14 14 14 13 12 11 10 10 9 8
13 15 15 13 12 11 11 12 14 14 14 14 14 15 16 16 17 17 17 17 17 18 19 20 20 21 20 20 20 20 20 21 21 19 16 15 16 18 19 19 18 19 20 21 21 20 18 17 17 17 17 17 18 19 19 19 19 20 20 20 20 20 20 20 20 20 20 19 18 17 17 17 17 17 17 17 17 17 17 17 16 15 13 11 11 11 11
11 13 14 15 14 12 11 11 12 13 13 14 13 13 13 14 16 16 16 14 13 15 16 17 17 17 17 17 18 18 19 20 20 19 18 17 17 17 17 16 17 18 19 20 21 20 19 19 18 18 19 19 20 20 21 21 21 21 20 20 20 20 20 20 20 20 19 18 17 17 17 17 18 19 19 20 20 20 20 20 20 19 18 15 13 13 13
11 12 12 14 15 15 13 12 11 12 14 15 16 15 14 14 14 15 16 15 14 14 15 16 16 16 15 14 14 15 16 18 18 18 18 19 19 20 19 17 16 17 17 18 19 19 20 20 20 19 19 19 19 19 20 20 21 21 21 21 20 19 19 19 19 18 18 17 16 16 16 16 16 17 17 17 18 19 19 19 19 19 19 17 16 15 16
13 13 12 11 12 13 12 10 10 11 12 14 15 16 16 16 15 15 15 15 15 16 17 17 16 16 15 15 14 15 15 16 17 18 19 19 19 19 19 18 16 16 16 18 18 19 19 20 20 19 19 19 19 19 18 19 19 20 21 21 21 20 19 17 17 17 16 16 15 15 15 14 15 15 14 14 13 13 14 14 15 15 15 15 14 14 15
Wind_Direction
296 286 278 272 266 252 262 272 224 193 184 187 186 195 193 159 156 210 225 215 215 229 246 250 241 186 158 149 159 167 171 176 178 179 183 187 188 187 188 190 194 197 199 200 200 202 202 202 202 204 206 208 210 212 213 214 215 216 218 219 220 222 223 226 229 231 232 232 233 233 234 234 235 235 235 235 235 236 236 236 237 237 238 239 241 242 243
296 288 284 285 290 271 275 290 228 191 189 195 188 184 189 177 184 201 194 197 216 225 222 230 237 198 142 126 149 162 165 171 175 177 181 186 187 187 188 191 195 198 200 201 201 202 202 202 203 204 206 208 210 212 213 214 215 217 218 219 220 222 223 227 231 232 233 233 234 234 234 234 235 235 235 235 235 236 237 238 238 238 238 239 240 242 243
291 293 310 331 333 304 284 312 280 195 192 198 193 183 185 195 207 196 165 180 224 254 229 178 130 104 100 94 112 154 164 168 172 175 180 184 187 189 191 193 197 200 200 201 201 201 202 204 205 206 208 209 210 212 214 214 215 217 218 219 221 223 225 228 231 232 233 234 235 235 235 235 235 236 236 235 235 236 237 238 239 239 239 239 240 241 243
288 306 335 335 324 308 290 344 345 222 193 193 198 181 159 183 210 166 131 171 230 261 82 80 74 78 85 87 83 122 160 171 173 175 178 182 185 190 193 195 197 199 200 200 201 202 205 206 207 208 209 210 210 212 213 214 215 217 218 220 222 225 228 230 231 232 234 235 236 236 236 236 236 237 236 236 235 235 236 237 238 239 239 240 241 241 242
284 306 331 322 315 332 360 20 0 321 193 133 119 146 80 20 277 154 160 199 220 191 120 93 75 66 67 64 67 98 143 167 174 174 176 180 185 190 193 195 197 199 201 202 204 206 207 208 209 210 211 211 212 213 214 215 217 217 219 222 224 226 229 230 232 234 235 237 237 237 238 237 237 237 237 236 236 235 236 236 237 238 240 241 242 242 242
290 309 323 313 314 55 29 17 14 1 53 89 78 58 27 12 8 349 259 207 165 154 122 103 91 73 68 62 59 81 118 138 143 148 161 174 182 188 192 195 198 201 202 202 204 207 209 209 210 210 211 213 214 215 216 217 218 219 221 223 225 227 229 231 233 235 236 237 238 239 239 239 239 238 238 238 237 236 236 236 236 238 240 241 242 242 242
280 310 328 289 186 212 282 351 24 12 24 73 71 54 30 13 5 352 335 47 105 114 108 103 102 93 78 68 59 63 88 107 110 108 116 142 162 174 182 189 195 200 202 203 205 206 206 206 206 206 210 213 215 215 216 218 220 221 222 224 226 228 230 231 233 235 236 237 238 239 240 239 239 240 240 239 238 237 236 236 236 238 240 242 243 243 244
278 327 333 212 204 274 322 3 16 7 360 8 35 49 33 8 3 359 353 23 77 104 103 102 103 95 79 67 58 58 71 88 97 98 98 108 125 138 153 166 178 190 199 203 206 206 205 205 205 208 212 215 216 217 218 220 222 223 224 225 227 229 231 232 233 235 236 237 238 239 240 240 239 240 240 241 241 239 238 237 238 239 241 242 243 244 245
340 342 300 272 298 323 346 1 351 347 344 325 332 49 39 5 1 2 4 16 32 81 106 107 101 90 78 65 52 53 65 78 87 92 94 98 104 109 119 130 139 151 167 180 190 197 202 205 209 213 217 219 220 221 222 223 225 226 227 227 228 230 232 233 234 235 236 237 238 239 240 240 240 240 241 241 242 241 240 240 240 240 241 242 243 244 246
349 346 311 329 351 328 339 338 324 319 317 303 292 36 45 7 357 357 3 20 22 13 5 117 98 83 74 64 40 46 61 75 83 87 90 94 99 102 108 116 121 128 136 141 150 164 176 185 197 207 214 218 222 224 225 227 227 227 229 230 231 232 233 234 236 237 238 239 240 240 240 241 242 242 242 242 242 242 242 242 243 243 244 244 245 245 246
310 325 312 317 317 269 328 327 321 321 321 307 275 90 40 357 349 354 0 16 27 15 353 28 80 81 76 71 43 52 66 75 80 84 84 85 91 96 99 105 111 120 129 135 141 149 158 167 178 191 201 209 216 221 225 228 227 229 231 233 234 234 235 236 237 238 240 240 241 242 242 242 243 244 244 244 244 244 244 244 245 246 246 246 246 247 247
285 290 284 290 221 304 319 320 317 317 315 307 246 92 45 336 340 355 3 18 29 24 25 44 64 73 81 88 68 66 73 76 78 81 80 78 81 83 85 89 95 108 124 138 144 147 153 163 174 186 195 202 209 215 220 224 227 230 234 236 237 238 238 239 239 239 241 241 241 242 243 244 245 245 245 245 244 244 244 245 245 246 246 247 248 249 250
285 284 279 282 219 306 319 318 316 314 310 318 80 78 354 306 341 7 17 26 34 36 42 53 58 57 67 78 76 72 74 75 75 77 78 76 74 73 74 75 80 90 103 116 132 144 154 166 180 191 198 203 208 212 217 222 226 231 234 236 238 240 241 241 241 241 241 242 242 242 243 245 245 245 245 245 244 245 245 245 245 245 246 247 248 250 251
268 261 270 287 225 338 331 322 324 331 339 83 68 34 323 329 359 23 30 32 37 44 51 57 59 60 65 69 69 66 67 70 72 73 75 75 73 70 67 64 65 71 79 88 102 120 151 179 193 200 206 212 214 216 220 224 227 231 234 234 236 238 241 242 243 243 243 242 243 242 242 242 242 242 243 244 244 245 245 245 245 245 247 247 248 250 251
268 237 294 9 69 339 339 334 339 5 34 72 37 15 7 14 25 34 36 36 38 43 52 56 55 57 60 62 64 64 64 67 69 69 70 71 71 72 69 64 59 56 57 65 72 75 94 210 222 223 223 223 224 225 227 229 231 233 235 236 236 236 238 241 244 245 245 244 243 242 241 239 239 240 241 242 243 243 243 243 244 245 246 247 248 249 251
338 260 15 32 173 314 351 1 13 26 42 56 47 29 14 22 33 38 37 38 40 43 49 53 52 52 52 54 58 59 60 64 67 68 68 65 63 66 70 71 70 65 63 62 58 55 51 265 245 248 246 236 232 235 236 238 239 238 238 239 238 236 236 237 240 244 246 247 245 243 241 239 237 238 239 240 241 242 242 242 243 243 245 246 247 249 250
289 233 262 316 264 247 34 43 41 31 39 46 42 35 30 27 31 37 39 38 39 42 46 49 49 48 47 48 51 52 53 56 60 65 68 66 61 59 61 67 69 66 69 68 54 46 40 5 272 262 260 245 240 242 243 246 247 245 242 241 240 238 236 234 236 239 244 247 246 243 241 238 236 235 237 238 239 239 240 240 241 242 243 245 247 248 249
287 272 276 329 327 351 55 61 57 46 41 37 33 35 37 33 30 33 37 39 40 40 42 44 45 45 44 45 45 45 46 47 48 54 60 63 62 57 54 54 53 50 52 45 31 30 21 352 317 290 272 255 249 249 247 250 252 249 245 241 239 237 233 230 231 234 238 243 244 242 240 238 236 236 236 236 237 237 238 239 239 241 243 245 247 248 249
320 301 342 353 352 26 55 57 55 47 38 34 33 30 31 36 37 30 29 37 44 43 41 40 41 42 44 44 40 39 41 41 40 42 47 54 57 56 51 47 43 42 36 21 11 6 355 341 319 291 276 265 258 252 245 245 249 249 246 239 233 230 226 223 224 227 231 235 238 238 236 236 235 234 234 235 237 236 236 237 238 240 242 244 245 246 246
318 274 337 355 352 33 57 47 42 45 42 37 33 28 23 29 35 31 26 32 41 45 43 40 37 38 40 41 39 38 38 39 37 38 42 47 52 53 50 45 39 33 25 13 3 355 349 345 331 307 286 272 265 258 245 238 241 247 247 240 231 224 220 219 220 222 225 229 232 231 229 227 227 228 229 232 235 237 238 239 240 241 242 243 243 243 242
306 271 359 2 352 2 30 23 19 27 28 20 16 16 13 12 16 22 28 32 37 42 42 39 36 35 33 32 34 35 36 37 37 37 39 44 48 48 47 44 36 25 18 11 358 347 343 338 332 324 305 281 266 260 251 241 238 241 244 242 236 229 223 220 219 219 221 224 226 225 222 220 220 220 222 227 232 236 240 241 242 243 243 242 241 239 237
298 304 342 353 346 309 324 337 341 346 350 351 350 354 360 2 4 12 26 36 37 35 36 36 35 33 26 21 23 28 31 30 28 28 31 35 41 46 45 41 33 24 15 3 348 340 337 332 326 321 310 289 268 260 255 247 242 242 241 239 234 229 224 219 217 217 218 220 221 220 219 218 218 218 221 225 228 231 233 236 239 241 241 239 237 235 233
280 291 300 306 307 289 293 303 313 319 325 334 337 338 349 360 3 9 19 27 25 22 23 26 28 27 19 12 13 19 22 21 19 20 20 22 28 35 37 34 28 19 4 349 339 334 333 331 322 312 306 296 275 261 255 249 245 243 240 236 230 224 219 215 212 214 217 218 218 217 217 218 219 218 220 222 223 224 226 228 229 232 234 234 233 230 227
283 285 286 291 295 290 287 292 299 301 304 315 325 332 351 11 9 357 358 4 8 8 7 7 10 13 11 6 6 10 12 13 14 14 14 15 16 21 27 25 16 3 348 337 334 331 327 323 313 308 309 305 288 268 256 249 243 239 241 240 233 225 220 215 213 213 215 216 216 216 215 215 215 215 217 218 216 215 217 220 221 222 224 228 227 223 220
281 280 283 285 284 282 283 286 288 288 288 296 310 326 346 356 351 339 335 342 352 359 0 360 360 1 0 358 359 2 4 6 8 7 8 9 4 1 11 11 358 349 339 329 325 323 315 300 296 299 304 305 297 280 266 258 246 235 238 242 237 228 222 218 215 214 214 214 213 211 210 209 209 210 215 218 214 206 201 204 207 207 207 211 214 212 209
286 280 279 281 276 272 273 275 277 280 282 282 290 305 312 318 338 345 334 331 339 348 355 358 357 355 353 350 349 353 358 1 1 358 359 358 348 326 312 325 335 337 329 319 308 297 286 281 284 290 292 294 296 286 270 263 250 235 230 227 224 222 220 217 214 211 211 212 209 204 203 205 206 209 212 215 214 209 198 188 184 184 185 188 191 196 198
297 282 271 269 269 266 263 262 267 276 281 275 276 297 311 308 327 352 343 334 335 338 343 349 348 343 341 338 337 342 350 354 352 350 350 346 332 306 287 295 318 320 308 295 276 266 271 272 276 282 282 282 282 279 268 259 249 239 226 213 208 211 213 212 209 206 206 209 207 202 200 201 204 206 205 204 204 202 196 187 181 176 171 164 159 160 167
308 289 261 244 248 255 255 252 254 259 259 252 252 283 311 310 308 326 334 335 334 331 333 338 337 331 329 327 325 330 341 347 346 344 340 333 323 306 286 286 304 300 278 257 241 242 247 250 257 263 262 257 255 253 248 242 238 237 231 217 207 205 202 199 198 197 196 196 196 194 191 190 192 194 193 193 193 189 182 178 173 167 159 152 148 148 149
321 302 272 252 249 251 253 251 248 248 251 251 251 260 281 296 302 307 317 324 324 324 329 333 330 323 320 318 316 320 331 340 338 333 328 321 316 306 290 290 302 292 266 246 236 235 237 237 237 229 213 205 203 208 217 218 213 215 219 215 208 202 192 183 180 179 178 175 174 172 169 168 171 172 168 166 166 164 161 160 159 156 154 152 153 152 147
330 309 289 274 259 248 247 250 250 251 255 258 258 257 262 276 287 292 300 311 313 314 320 326 330 330 323 317 315 318 322 325 323 318 312 306 303 299 293 290 290 281 263 247 237 232 233 233 224 207 189 180 183 197 211 211 197 188 184 178 173 175 176 170 163 157 153 149 147 148 147 147 149 149 145 143 145 147 148 147 145 143 140 138 139 141 140
352 327 301 291 271 246 244 249 250 247 248 254 258 257 256 263 273 279 287 297 302 307 312 318 328 335 328 316 314 315 311 308 306 302 297 292 291 291 283 261 241 227 215 212 215 220 225 227 220 208 194 179 177 188 198 198 192 180 165 158 154 153 155 155 150 145 143 142 142 143 143 141 141 142 142 142 143 145 143 138 134 130 130 132 134 137 143
9 358 330 301 276 254 249 249 249 246 242 243 248 249 248 251 260 272 282 286 293 305 310 312 322 331 326 315 309 302 292 282 267 263 271 277 281 277 257 230 212 194 178 172 176 189 205 215 215 208 199 190 186 186 187 190 193 183 169 162 157 152 150 150 148 144 143 143 143 144 145 145 146 147 147 148 151 153 150 145 141 140 142 144 143 142 148
12 5 353 322 270 257 260 257 252 248 244 242 243 247 248 246 250 262 271 276 290 303 304 304 314 319 307 297 294 271 241 232 211 179 171 186 198 201 201 199 193 181 171 167 164 164 175 192 200 198 194 192 190 186 183 184 184 176 168 162 155 149 148 149 149 149 147 144 143 144 145 147 148 149 148 148 151 154 151 147 145 148 151 153 152 153 156
18 17 18 19 341 254 268 275 266 256 254 251 248 249 246 241 245 257 262 270 289 299 292 295 305 281 212 225 242 213 194 191 169 143 130 135 145 154 167 175 172 166 161 161 162 161 160 166 175 181 183 184 184 182 180 179 175 169 164 159 151 145 143 142 145 148 148 144 143 145 146 147 147 146 145 146 148 150 150 150 151 155 160 162 163 166 172
28 30 34 39 46 54 19 344 313 268 256 254 254 252 245 242 248 256 257 269 288 292 273 274 279 197 173 182 197 186 170 151 137 130 126 126 130 140 155 158 152 148 146 143 149 157 154 149 156 168 174 177 178 176 175 176 174 169 164 161 155 148 145 144 144 144 143 142 144 146 147 146 145 144 144 146 149 151 154 156 158 162 165 165 167 174 185
32 34 36 39 44 51 56 55 53 60 104 186 213 224 229 235 242 249 258 274 284 270 242 222 195 177 175 177 172 159 143 130 125 123 122 121 123 129 136 130 119 118 121 118 120 137 142 135 141 157 166 169 170 166 164 168 171 169 166 165 162 155 151 150 148 145 143 144 146 147 146 146 147 147 149 152 153 154 156 160 162 165 169 170 174 181 192
36 36 36 38 43 48 51 54 59 66 73 75 78 107 214 230 241 252 260 259 230 219 213 196 175 166 162 155 148 140 130 123 121 119 117 119 124 126 120 108 94 88 85 78 80 110 126 120 120 138 149 153 156 157 158 161 164 164 162 163 162 160 158 156 152 148 146 146 146 146 146 148 152 154 155 158 160 161 164 168 171 175 180 184 189 198 208
41 40 39 40 43 46 47 52 58 64 68 70 69 70 83 107 133 199 174 141 135 140 151 161 163 154 142 136 134 130 124 120 119 117 116 119 125 122 111 101 92 85 77 65 56 76 99 99 100 119 132 135 139 147 155 160 162 161 159 159 159 160 159 157 154 151 148 146 146 150 154 158 163 165 166 169 172 172 173 176 180 185 193 201 211 220 227
44 44 42 41 43 45 47 51 55 58 63 68 70 72 81 93 104 112 118 120 118 114 115 129 143 143 134 127 124 122 119 118 118 118 115 117 120 114 102 95 93 92 92 89 78 69 71 68 70 89 111 121 125 131 140 147 152 153 152 152 153 154 153 152 151 149 147 145 147 151 153 154 158 160 160 162 164 164 163 166 170 175 181 188 199 214 222
47 48 48 46 45 45 47 50 53 55 60 65 68 70 75 83 90 93 95 98 102 100 100 108 121 126 124 119 114 112 111 112 113 114 114 114 114 108 99 95 96 98 99 100 95 86 81 72 65 71 86 101 109 114 119 124 128 132 132 132 133 133 133 135 137 137 136 137 138 138 136 134 134 134 134 135 136 135 133 134 135 134 134 131 126 123 121
48 50 52 53 52 50 50 51 53 54 57 61 63 65 70 76 81 82 81 82 86 87 84 88 98 105 108 108 106 104 102 102 105 108 110 110 108 102 94 90 91 96 99 100 97 92 88 81 69 66 73 83 89 94 98 103 106 110 111 110 111 113 116 119 121 120 120 121 122 120 120 119 118 117 116 115 113 110 108 106 104 104 105 105 104 103 103
49 51 53 55 55 55 55 56 56 56 56 58 59 61 64 70 75 78 78 79 81 81 77 78 85 92 95 98 99 98 97 96 96 97 98 98 96 95 92 88 87 91 93 93 92 90 86 80 70 63 64 74 81 86 90 92 94 96 100 103 105 107 108 109 107 106 105 104 102 102 102 104 105 104 103 101 98 94 91 90 88 87 87 86 85 85 83
55 53 54 56 58 57 57 58 59 58 58 57 58 60 62 66 69 72 73 74 77 78 77 77 80 84 87 90 91 89 88 88 88 89 88 87 86 88 90 89 87 89 88 84 80 79 80 80 79 77 73 72 75 80 85 88 90 91 93 97 100 103 103 102 100 99 98 95 94 92 92 93 94 94 93 92 90 88 88 88 88 88 88 88 87 84 81
68 63 59 59 60 60 61 61 62 61 60 58 57 57 60 63 66 68 69 69 70 72 74 75 78 80 83 85 85 84 82 81 82 85 86 85 82 82 85 86 85 84 83 82 80 77 75 75 79 82 82 79 77 77 78 80 83 86 88 90 93 96 98 99 99 98 96 95 94 94 93 93 93 95 95 96 96 96 94 94 93 91 90 89 88 87 86
76 74 70 66 64 64 65 67 67 67 67 64 60 57 58 61 65 68 69 69 68 68 69 72 74 76 79 82 84 85 85 83 82 82 83 84 83 81 81 84 84 82 81 80 80 78 77 77 76 75 75 74 75 77 78 78 80 84 87 89 90 91 92 92 93 93 92 92 92 92 93 94 94 96 96 96 96 96 94 94 94 92 88 86 84 82 81
68 72 75 77 77 75 73 74 75 76 75 73 71 68 65 66 68 70 72 73 72 71 71 70 71 74 78 81 83 84 85 84 83 82 84 86 88 86 83 82 81 81 81 81 79 78 78 79 78 77 75 73 74 77 81 83 85 87 88 88 88 88 87 87 87 87 87 87 87 87 89 89 88 88 87 85 84 83 82 82 84 85 83 84 86 84 83
58 60 69 84 90 88 86 84 83 82 80 78 79 78 75 73 74 76 78 79 78 75 73 72 72 75 78 80 83 85 85 84 83 82 83 86 89 90 88 85 83 80 78 78 79 80 81 81 80 80 81 81 83 86 89 91 92 92 90 87 86 83 82 83 83 83 83 83 83 82 82 82 80 80 79 76 73 71 68 65 65 66 65 68 73 76 78
62 62 62 69 83 93 94 89 84 81 81 81 81 81 80 79 79 80 82 83 81 77 76 77 77 77 77 78 81 86 87 86 84 82 79 80 85 89 90 90 89 88 85 83 81 79 79 81 83 85 86 86 88 91 93 94 94 93 92 90 88 85 84 84 84 84 83 81 78 75 74 72 69 66 62 60 58 56 53 52 52 51 50 53 57 58 59
69 67 63 62 68 78 84 81 78 80 84 85 84 83 83 82 80 79 82 86 85 81 81 84 85 84 82 81 82 84 85 85 84 84 80 77 78 82 84 87 89 91 92 92 90 87 85 86 88 90 93 95 95 95 97 97 96 95 93 91 89 88 87 87 86 85 83 79 75 72 69 65 59 53 49 47 45 45 46 48 50 49 49 51 52 52 51
68 65 60 56 58 65 75 81 81 81 81 80 82 85 87 86 81 75 75 84 91 89 85 85 85 84 83 84 84 85 86 88 89 89 87 82 77 75 77 84 91 93 94 95 95 93 91 90 90 91 94 97 98 98 99 99 98 97 97 96 95 95 94 94 93 92 91 88 85 81 75 67 59 53 49 45 44 44 46 48 48 47 48 51 52 51 50
60 60 58 55 55 60 70 80 83 81 78 76 78 82 88 92 89 81 76 79 87 91 89 87 84 81 81 81 78 77 83 90 93 92 88 85 80 75 74 80 90 95 95 95 97 96 92 90 89 89 90 92 96 99 100 101 101 100 100 100 100 100 100 100 100 101 101 99 98 96 91 84 77 71 64 56 51 48 47 45 43 41 43 47 51 52 50
54 52 52 51 48 51 60 71 77 76 73 73 76 79 82 87 92 92 87 84 85 88 90 90 85 80 81 84 83 81 83 89 93 93 90 89 86 79 73 73 81 90 94 94 97 98 97 94 91 89 88 89 93 97 99 101 102 103 103 103 104 104 105 107 109 109 107 105 104 104 102 99 94 89 84 78 71 63 55 48 42 37 39 44 50 52 48